Lid_Strength_Index
2 1 1 1 2 2 2 1 2 1 0 1 0 0 1 1 0 1 1 1 1 1 1 1 1 0 1 1 1 1 2 2 4 3 3 2 1 1 2 1 1 1 0
2 2 2 1 2 2 2 1 2 1 1 1 1 1 1 1 0 1 1 1 1 1 1 1 1 1 1 1 1 2 2 2 3 4 3 3 2 2 3 3 2 2 2
2 2 2 2 2 2 2 2 2 1 1 1 1 1 1 1 1 1 1 1 1 1 1 1 1 1 1 1 1 1 1 1 2 3 3 3 2 3 4 4 4 3 2
2 2 2 2 2 2 2 2 1 1 1 1 1 1 1 1 1 1 1 1 1 1 1 1 1 1 1 1 1 1 1 2 2 3 3 3 3 3 3 5 5 4 4
2 2 2 2 1 2 2 2 2 2 2 2 1 1 1 1 1 1 1 1 1 1 1 0 1 0 1 1 1 1 1 2 2 3 3 4 4 4 4 4 5 5 5
4 3 3 2 2 2 3 3 3 2 2 2 2 2 1 2 4 3 1 1 1 2 2 1 0 0 1 2 1 1 1 2 2 3 4 3 3 3 3 3 4 5 5
3 3 2 2 2 3 3 3 3 3 2 2 1 2 2 1 5 5 3 1 2 2 1 1 1 1 1 0 2 2 3 3 2 1 3 3 3 2 2 3 4 4 4
3 2 2 2 2 3 4 3 3 2 2 2 1 2 1 1 5 7 5 1 2 2 2 1 1 1 1 1 1 1 1 1 2 2 1 1 1 2 2 2 3 3 4
3 3 2 2 3 4 4 4 4 3 3 2 2 2 2 2 6 7 5 3 4 2 2 1 1 1 3 4 1 2 1 1 4 3 3 4 4 4 2 2 4 4 5
3 3 2 2 3 4 4 4 4 4 4 3 3 4 5 3 5 8 6 4 4 3 2 1 3 2 6 6 1 1 2 2 1 1 1 2 3 3 3 0 2 3 3
3 3 2 2 3 4 5 5 7 5 5 4 4 4 4 2 1 8 8 3 4 4 2 1 1 6 8 9 5 1 2 1 2 1 1 1 1 1 1 0 0 1 2
2 4 4 4 3 4 4 5 5 5 5 5 5 5 4 2 4 7 8 7 6 4 3 1 2 9 9 9 5 6 7 4 1 1 2 2 1 2 1 1 1 1 0
3 3 4 5 4 4 3 2 3 5 5 3 3 3 3 2 1 8 8 8 7 4 2 3 7 10 10 7 8 7 6 2 1 2 2 2 1 0 0 1 1 0 0
3 3 3 4 5 3 4 3 3 3 4 3 3 3 3 2 3 5 6 5 6 4 5 5 6 6 6 5 5 5 3 2 2 2 2 2 3 3 2 0 1 1 1
3 3 3 3 3 2 2 5 5 3 4 3 2 2 3 3 4 7 7 4 3 5 5 4 4 4 4 3 3 3 3 4 5 5 4 4 4 4 3 2 1 1 2
3 3 3 3 4 3 3 5 11 11 12 14 12 6 2 7 10 11 11 10 10 10 4 3 3 2 2 3 3 3 3 3 3 3 4 4 3 3 2 2 2 2 2
3 3 4 4 3 4 4 3 4 8 13 14 15 13 9 9 11 11 11 11 11 9 3 3 3 3 3 3 2 2 2 2 2 3 3 3 3 3 3 3 3 3 4
3 5 3 3 2 2 3 3 4 5 5 8 12 12 12 12 12 12 12 11 7 5 2 3 3 3 2 2 2 3 3 3 4 4 5 4 3 3 3 3 3 3 4
3 3 3 2 3 3 2 3 4 6 7 8 7 11 12 13 13 13 11 4 4 4 4 4 3 2 3 3 3 3 3 3 4 4 4 3 3 3 3 3 3 6 4
3 4 4 2 2 3 3 3 3 4 5 5 6 7 7 6 6 6 5 5 4 4 4 4 3 3 4 4 4 4 4 4 3 3 4 3 3 3 4 4 4 3 3
4 3 3 3 2 2 2 3 3 3 3 4 4 6 10 4 5 5 5 5 4 4 4 4 4 4 4 4 4 5 5 5 5 5 5 4 4 4 3 2 3 3 3
4 3 3 3 2 2 2 2 2 3 3 3 4 6 9 4 5 6 6 6 5 6 6 6 6 6 5 5 6 7 7 7 6 4 4 4 4 4 3 3 3 3 4
3 3 3 3 3 4 2 2 2 2 3 3 3 4 5 5 6 6 6 6 6 7 7 7 8 8 7 8 7 7 7 7 6 5 4 4 4 3 3 3 3 4 4
3 3 3 3 4 3 3 3 3 5 2 3 4 4 4 5 5 5 6 7 7 8 8 9 9 9 9 10 10 10 10 9 8 7 5 4 4 5 4 4 4 4 4
2 2 3 3 4 4 4 4 3 3 4 4 4 4 5 5 5 6 7 7 8 10 10 10 9 10 10 10 10 10 12 14 9 11 6 6 6 5 5 5 5 5 6
3 3 3 3 3 3 3 3 4 4 4 4 4 4 4 4 5 6 6 7 9 10 9 9 9 9 9 10 10 12 14 14 10 12 8 8 8 9 9 9 9 9 9